User: anonymous
Location: Unspecified
(0.0000°N, 0.0000°E)
Time: 06:01:32
(UTC+02:00)
Language:

Coronas F rocket - Orbit

View from above orbital plane
View from above orbital plane
View from above satellite
View from above satellite

Ground track
Ground track

The orbit data is extracted from the following two-line orbital elements,

1 26874U 01032B   14273.79012437  .00016095  00000-0  24302-3 0  8111
2 26874 082.4718 232.4985 0015368 036.6640 323.5661 15.54446882737695
Epoch (UTC): 30 September 2014 18:57:46
Eccentricity: 0.0015368
inclination: 82.4718°
perigee height: 393 km
apogee height: 414 km
right ascension of ascending node: 232.4985°
argument of perigee: 36.6640°
revolutions per day: 15.54446882
mean anomaly at epoch: 323.5661°
orbit number at epoch: 73769

The dashed part of the orbit path shows where the satellite is in the earth's shadow,  

DLR